Weather reports worldwide

Advertisment
San Sebastian/Igueldo, Spain (8027): temperature & dewpoint: 09.08.2020 22:00:00 - 15.08.2020 22:00:00 (CEST)San Sebastian/Igueldo, Spain (8027): wind speed: 09.08.2020 22:00:00 - 15.08.2020 22:00:00 (CEST)San Sebastian/Igueldo, Spain (8027): wind direction: 09.08.2020 22:00:00 - 15.08.2020 22:00:00 (CEST)San Sebastian/Igueldo, Spain (8027): reduced air pressure: 09.08.2020 22:00:00 - 15.08.2020 22:00:00 (CEST)San Sebastian/Igueldo, Spain (8027): visibility: 09.08.2020 22:00:00 - 15.08.2020 22:00:00 (CEST)
Date & Time tt [°C] td [°C] ff [km/h] ff [kn] dd ppp [hPa] vv [km]
15.08.2020 22:00:00 - - - - - - -
15.08.2020 21:00:00 - - - - - - -
15.08.2020 20:00:00 19,4 17,7 34 18 WNW 1012,5 15
15.08.2020 19:00:00 - - - - - - -
15.08.2020 18:00:00 - - - - - - -
15.08.2020 17:00:00 21,4 19,5 16 9 NW 1012,3 12
15.08.2020 16:00:00 - - - - - - -
15.08.2020 15:00:00 - - - - - - -
15.08.2020 14:00:00 20,4 19,2 9 5 NW 1012,6 15
15.08.2020 13:00:00 - - - - - - -
15.08.2020 12:00:00 - - - - - - -
15.08.2020 11:00:00 19,5 18,8 9 5 NW 1012,9 15
15.08.2020 10:00:00 - - - - - - -
15.08.2020 09:00:00 - - - - - - -
15.08.2020 08:00:00 19,1 18,1 2 1 W 1012,9 25
15.08.2020 07:00:00 - - - - - - -
15.08.2020 06:00:00 - - - - - - -
15.08.2020 05:00:00 19,1 18,3 5 3 SSE 1013,8 30
15.08.2020 04:00:00 - - - - - - -
15.08.2020 03:00:00 - - - - - - -
15.08.2020 02:00:00 19,4 17,5 9 5 N 1015,1 40
15.08.2020 01:00:00 - - - - - - -
15.08.2020 00:00:00 - - - - - - -
14.08.2020 23:00:00 19,6 17,4 9 5 N 1015,7 40
14.08.2020 22:00:00 - - - - - - -
14.08.2020 21:00:00 - - - - - - -
14.08.2020 20:00:00 20,1 16,7 11 6 N 1015,0 40
14.08.2020 19:00:00 - - - - - - -
14.08.2020 18:00:00 - - - - - - -
14.08.2020 17:00:00 21,3 17,1 15 8 N 1014,8 40
14.08.2020 16:00:00 - - - - - - -
14.08.2020 15:00:00 - - - - - - -
14.08.2020 14:00:00 20,4 16,8 8 4 NNE 1017,1 50
14.08.2020 13:00:00 - - - - - - -
14.08.2020 12:00:00 - - - - - - -
14.08.2020 11:00:00 18,8 16,8 4 2 ESE 1018,4 50
14.08.2020 10:00:00 - - - - - - -
14.08.2020 09:00:00 - - - - - - -
14.08.2020 08:00:00 16,6 16,0 4 2 SE 1017,8 45
14.08.2020 07:00:00 - - - - - - -
14.08.2020 06:00:00 - - - - - - -
14.08.2020 05:00:00 17,0 16,0 5 3 SSE 1018,6 50
14.08.2020 04:00:00 - - - - - - -
14.08.2020 03:00:00 - - - - - - -
14.08.2020 02:00:00 18,0 16,0 5 3 SSE 1019,2 50
14.08.2020 01:00:00 - - - - - - -
14.08.2020 00:00:00 - - - - - - -
13.08.2020 23:00:00 18,6 16,0 11 6 NNW 1019,0 50
13.08.2020 22:00:00 - - - - - - -
13.08.2020 21:00:00 - - - - - - -
13.08.2020 20:00:00 19,2 15,9 8 4 NW 1018,2 50
13.08.2020 19:00:00 - - - - - - -
13.08.2020 18:00:00 - - - - - - -
13.08.2020 17:00:00 20,4 16,8 18 10 NW 1018,1 50
13.08.2020 16:00:00 - - - - - - -
13.08.2020 15:00:00 - - - - - - -
13.08.2020 14:00:00 20,2 16,8 21 11 NW 1017,9 40
13.08.2020 13:00:00 - - - - - - -
13.08.2020 12:00:00 - - - - - - -
13.08.2020 11:00:00 18,8 15,9 18 10 W 1017,3 40
13.08.2020 10:00:00 - - - - - - -
13.08.2020 09:00:00 - - - - - - -
13.08.2020 08:00:00 18,1 14,2 18 10 W 1016,9 40
13.08.2020 07:00:00 - - - - - - -
13.08.2020 06:00:00 - - - - - - -
13.08.2020 05:00:00 18,4 14,3 9 5 W 1015,7 30
13.08.2020 04:00:00 - - - - - - -
13.08.2020 03:00:00 - - - - - - -
13.08.2020 02:00:00 18,6 17,3 5 3 WSW 1014,6 35
13.08.2020 01:00:00 - - - - - - -
13.08.2020 00:00:00 - - - - - - -
12.08.2020 23:00:00 18,9 18,7 31 17 WNW 1014,4 15
12.08.2020 22:00:00 - - - - - - -
12.08.2020 21:00:00 - - - - - - -
12.08.2020 20:00:00 21,6 15,0 13 7 S 1011,0 35
12.08.2020 19:00:00 - - - - - - -
12.08.2020 18:00:00 - - - - - - -
12.08.2020 17:00:00 24,1 19,2 16 9 SW 1010,8 30
12.08.2020 16:00:00 - - - - - - -
12.08.2020 15:00:00 - - - - - - -
12.08.2020 14:00:00 25,7 21,8 5 3 WNW 1011,2 40
12.08.2020 13:00:00 - - - - - - -
12.08.2020 12:00:00 - - - - - - -
12.08.2020 11:00:00 24,4 17,9 15 8 S 1011,4 50
12.08.2020 10:00:00 - - - - - - -
12.08.2020 09:00:00 - - - - - - -
12.08.2020 08:00:00 20,6 19,4 2 1 ESE 1012,1 20
12.08.2020 07:00:00 - - - - - - -
12.08.2020 06:00:00 - - - - - - -
12.08.2020 05:00:00 20,4 17,6 11 6 SSW 1011,8 40
12.08.2020 04:00:00 - - - - - - -
12.08.2020 03:00:00 - - - - - - -
12.08.2020 02:00:00 21,2 19,7 9 5 WNW 1012,7 40
12.08.2020 01:00:00 - - - - - - -
12.08.2020 00:00:00 - - - - - - -
11.08.2020 23:00:00 21,2 18,8 4 2 SSE 1012,5 50
11.08.2020 22:00:00 - - - - - - -
11.08.2020 21:00:00 - - - - - - -
11.08.2020 20:00:00 22,2 20,7 8 4 SSE 1012,4 30
11.08.2020 19:00:00 - - - - - - -
11.08.2020 18:00:00 - - - - - - -
11.08.2020 17:00:00 22,5 22,0 16 9 NW 1012,5 2,0
11.08.2020 16:00:00 - - - - - - -
11.08.2020 15:00:00 - - - - - - -
11.08.2020 14:00:00 25,6 22,1 9 5 N 1011,6 20
11.08.2020 13:00:00 - - - - - - -
11.08.2020 12:00:00 - - - - - - -
11.08.2020 11:00:00 24,2 20,5 5 3 SSE 1011,7 20
11.08.2020 10:00:00 - - - - - - -
11.08.2020 09:00:00 - - - - - - -
11.08.2020 08:00:00 20,2 20,2 11 6 S 1012,9 15
11.08.2020 07:00:00 - - - - - - -
11.08.2020 06:00:00 - - - - - - -
11.08.2020 05:00:00 20,5 20,5 0 0 N 1013,5 12
11.08.2020 04:00:00 - - - - - - -
11.08.2020 03:00:00 - - - - - - -
11.08.2020 02:00:00 20,4 20,4 4 2 SE 1014,1 15
11.08.2020 01:00:00 - - - - - - -
11.08.2020 00:00:00 - - - - - - -
10.08.2020 23:00:00 20,6 20,4 4 2 N 1015,2 12
10.08.2020 22:00:00 - - - - - - -
10.08.2020 21:00:00 - - - - - - -
10.08.2020 20:00:00 20,8 20,1 5 3 WNW 1014,1 15
10.08.2020 19:00:00 - - - - - - -
10.08.2020 18:00:00 - - - - - - -
10.08.2020 17:00:00 21,2 20,4 8 4 NNW 1014,0 15
10.08.2020 16:00:00 - - - - - - -
10.08.2020 15:00:00 - - - - - - -
10.08.2020 14:00:00 21,3 20,3 9 5 NNW 1013,0 15
10.08.2020 13:00:00 - - - - - - -
10.08.2020 12:00:00 - - - - - - -
10.08.2020 11:00:00 20,6 19,9 4 2 NNW 1013,2 8
10.08.2020 10:00:00 - - - - - - -
10.08.2020 09:00:00 - - - - - - -
10.08.2020 08:00:00 19,7 19,7 9 5 NW 1013,3 5
10.08.2020 07:00:00 - - - - - - -
10.08.2020 06:00:00 - - - - - - -
10.08.2020 05:00:00 20,0 20,0 9 5 NW 1013,5 0,2
10.08.2020 04:00:00 - - - - - - -
10.08.2020 03:00:00 - - - - - - -
10.08.2020 02:00:00 20,2 20,2 15 8 WNW 1014,0 0,3
10.08.2020 01:00:00 - - - - - - -
10.08.2020 00:00:00 - - - - - - -
09.08.2020 23:00:00 21,0 20,7 8 4 W 1014,4 3,0
09.08.2020 22:00:00 - - - - - - -

tt = temperature
td = dewpoint
ff = wind speed
dd = wind direction
ppp = reduced air pressure
vv = visibility

Next stations